Location: ????????
(55.6189°N, 38.3031°E)
Time: 07:57:48
(UTC+00:00)

Cosmos 1980 - Pass Details

Date: 15 November 2019
Orbit: 839 x 847 km, 71.0° (Epoch: 14 December)

Event Time Altitude Azimuth Distance (km) Brightness Sun altitude
Exits shadow 04:01:54 - 326° (NNW) 3,031 6.1 -8.2°
Reaches altitude 10° 04:03:26 10° 330° (NNW) 2,473 5.7 -8.0°
Maximum altitude 04:08:58 51° 46° (NE) 1,055 4.4 -7.3°
Drops below altitude 10° 04:14:28 10° 123° (ESE) 2,466 7.8 -6.6°
Sets 04:16:59 0° 128° (SE) 3,399 8.8 -6.3°
